Regional Weather Roundup
Issued by NWS

Home | Current Version | Previous Version | Text Only | Print | Product List | Glossary On
Versions: 1 2 3 4 5 6 7 8 9 10 11 12 13 14 15 16 17 18 19 20 21 22 23 24 25 26 27 28 29 30 31 32 33 34 35 36 37 38 39 40 41 42 43 44 45 46 47 48 49 50
000
ASUS46 KLOX 261513
RWRCA

SOUTHERN CALIFORNIA WEATHER ROUNDUP
NATIONAL WEATHER SERVICE OXNARD CALIFORNIA
800 AM PDT TUE SEP 26 2017

NOTE: "FAIR" INDICATES FEW OR NO CLOUDS BELOW 12,000 FEET WITH NO
SIGNIFICANT WEATHER AND/OR OBSTRUCTIONS TO VISIBILITY.

  -  STATIONS PRECEEDED BY AN ASTERISK (*) ARE NOT NWS OR FAA
     STATIONS AND ARE NOT SUBJECT TO NWS AND FAA QUALITY CONTROL.

CAZ041-042-087-261600-
LA AND ORANGE COUNTY COASTAL AREAS


CITY           SKY/WX    TMP DP  RH WIND       PRES   REMARKS
L.A. DOWNTOWN  SUNNY     69  37  30 CALM      29.81R
L.A. AIRPORT   MOSUNNY   65  41  41 E6        29.81R
LONG BEACH     SUNNY     64  41  42 CALM      29.81R

CITY           SKY/WX    TMP DP  RH WIND       PRES   REMARKS
AVALON           N/A     59 N/A N/A MISG        N/A
FULLERTON      MOSUNNY   66  38  35 CALM      29.80S
*GETTY CENTER    N/A    N/A N/A N/A SE2         N/A
HAWTHORNE      SUNNY     67  43  41 E6        29.81R
*LEO CARRILLO    N/A     71  34  26 CALM        N/A
*LOS ALAMITOS  MOSUNNY   63  40  42 CALM      29.81R
*REDONDO BEACH   N/A     63  52  68 CALM      29.80R
SANTA ANA      MOSUNNY   64  44  48 CALM      29.81R
STA MONICA APT SUNNY     65  41  41 NE3       29.81R
*UCLA            N/A     70  32  24 E2        29.79R

$$

CAZ547-548-048-261600-
LA COUNTY VALLEYS AND INLAND EMPIRE


CITY           SKY/WX    TMP DP  RH WIND       PRES   REMARKS
BURBANK        SUNNY     65  34  31 SE3       29.82R
VAN NUYS       SUNNY     64  39  39 CALM      29.82R

CITY           SKY/WX    TMP DP  RH WIND       PRES   REMARKS
CORONA AIRPORT SUNNY     54  41  61 NW3       29.84R
*CHATSWORTH      N/A     75  36  23 NE5       29.78S
CHINO          MOSUNNY   60  41  49 CALM      29.84R
*CLAREMONT       N/A     63  35  35 CALM        N/A
MARCH AFB      SUNNY     56  31  38 CALM      29.86R
*NORTHRIDGE      N/A     66  32  28 CALM        N/A
ONTARIO        MOSUNNY   67  32  27 CALM      29.83R
*PASADENA        N/A     66  39  37 CALM        N/A
POMONA         SUNNY     61  32  33 E3        29.85
RIVERSIDE      MOSUNNY   61  36  39 CALM      29.83R
SAN BERNARDINO MOSUNNY   63  28  27 CALM      29.84S
*SAN RAFAEL HI   N/A     74  25  16 CALM        N/A
*SAUGUS          N/A     63  27  25 N6          N/A
*WHITEMAN AP   SUNNY     68  28  22 CALM      29.86
*WHITTIER HILL   N/A     69  31  24 SE5         N/A
*WOODLAND HILL   N/A     66  37  34 CALM        N/A

$$

CAZ054-055-261600-
LA AND SAN BERNARDINO COUNTY MOUNTAINS


CITY           SKY/WX    TMP DP  RH WIND       PRES   REMARKS
*ACTON           N/A     64  28  26 N7          N/A
*BIG BEAR AIRP SUNNY     34  19  55 CALM      30.08R
*BIG PINES       N/A     46  21  37 CALM        N/A
*CHILAO          N/A     60  22  23 NE7G22      N/A
SANDBERG       SUNNY     64  24  21 E20       30.00
*WARM SPRINGS    N/A     64  26  23 NE20        N/A

$$

CAZ028-029-059-060-099-261600-
ANTELOPE VALLEY AND SURROUNDING AREAS


CITY           SKY/WX    TMP DP  RH WIND       PRES   REMARKS
LANCASTER      SUNNY     52  29  41 CALM      29.95R
PALMDALE       SUNNY     55  31  39 CALM      29.95R
*POPPY PARK      N/A     59  29  32 W2          N/A

CITY           SKY/WX    TMP DP  RH WIND       PRES   REMARKS
29 PALMS       PTSUNNY   65  20  17 W13       29.95S
BARSTOW/DAGGET PTSUNNY   59  24  26 W7        29.92R
BISHOP         SUNNY     52  27  38 NW7       30.08R
CHINA LAKE     MOSUNNY   65  25  22 NW3       29.94R
EDWARDS AFB    MOSUNNY   53  23  31 SW3       29.93R
MOJAVE         SUNNY     59  25  27 N5        29.95R HAZE
NEEDLES        MOSUNNY   73  32  22 N12       29.84R
VICTORVILLE    SUNNY     55  23  28 CALM      29.95R

$$

CAZ039-040-261600-
VENTURA AND SANTA BARBARA COUNTY COAST


CITY           SKY/WX    TMP DP  RH WIND       PRES   REMARKS
CAMARILLO      SUNNY     63  44  50 CALM      29.80R
NWS OXNARD       N/A     61  37  41 CALM      29.79R
OXNARD AIRPORT SUNNY     66  36  32 NE5       29.80R
*POINT MUGU    MOSUNNY   62  47  57 CALM      29.81R
SBA APT/GOLETA SUNNY     58  51  78 CALM      29.79S
*SANTA BARBARA   N/A     59  50  70 CALM      29.87R
*VENTURA         N/A     66  40  38 CALM      29.76R

$$

CAZ044-045-261600-
VENTURA COUNTY VALLEYS


CITY           SKY/WX    TMP DP  RH WIND       PRES   REMARKS
*SIMI VALLEY     N/A     73  34  24 NE7       29.76R
*WESTLAKE VILL   N/A     52  40  63 CALM      29.80R
*OJAI            N/A     54  43  65 CALM      29.78S
*FILLMORE        N/A     64  39  40 CALM      29.84S

$$

CAZ053-261600-
VENTURA COUNTY MOUNTAINS


CITY           SKY/WX    TMP DP  RH WIND       PRES   REMARKS
*LOCKWOOD VLY    N/A     37  25  60 MISG        N/A
*FRAZIER MTN     N/A     46  15  28 E5        29.76R
*ROSE VALLEY     N/A     37  27  65 N2          N/A

$$

CAZ034-035-036-261600-
CENTRAL COAST AND SANTA YNEZ VALLEY


CITY           SKY/WX    TMP DP  RH WIND       PRES   REMARKS
SAN LUIS OBISP SUNNY     56  41  57 CALM      29.82S
SANTA MARIA    SUNNY     56  43  61 CALM      29.82R

CITY           SKY/WX    TMP DP  RH WIND       PRES   REMARKS
*CAL POLY SLO    N/A     61  45  55 S3          N/A
*LOMPOC        SUNNY     54  42  64 E6        29.82S
*PISMO BEACH     N/A     63  49  60 CALM      29.82R
*SANTA YNEZ    FAIR      50  36  57 CALM      29.84R

$$

CAZ037-038-051-261600-
SAN LUIS OBISPO COUNTY INTERIOR AND CUYAMA VALLEY


CITY           SKY/WX    TMP DP  RH WIND       PRES   REMARKS
*CUYAMA          N/A     53  34  48 CALM      29.83S
PASO ROBLES    SUNNY     50  35  56 CALM      29.88S

$$

CAZ032-033-061-261600-
SOUTHERN DESERTS


CITY           SKY/WX    TMP DP  RH WIND       PRES   REMARKS
BLYTHE         SUNNY     64  26  23 NW3       29.80R
IMPERIAL       MOSUNNY   67  36  31 W6        29.77R
PALM SPRINGS   MOSUNNY   69  29  22 NW8       29.82R
THERMAL        PTSUNNY   69  33  26 N6        29.76R

$$

ELSEWHERE ACROSS THE WESTERN UNITED STATES AND MEXICO


CITY           SKY/WX    TMP DP  RH WIND       PRES   REMARKS
DEATH VALLEY,    N/A     80  32  18 E8          N/A
DENVER, CO     CLOUDY    49  43  80 CALM      30.21R
GRAND CANYON,  MOSUNNY   53  21  28 E14G23    30.08S
HONOLULU, HI   PTCLDY    73  66  78 NW5       29.94S
KAHULUI, MAUI  CLEAR     70  64  83 E3        29.95R
LAKE TAHOE, CA SUNNY     34  28  79 CALM      30.15R
LAS VEGAS, NV  PTSUNNY   66  30  26 N14       29.93S
MAMMOTH LAKES, FAIR      42  25  50 W6        30.18S
MEXICO CITY, M CLOUDY    64  57  77 E3        30.22R
PHOENIX, AZ    PTSUNNY   67  26  21 SE9       29.81R
PORTLAND, OR   PTCLDY    57  55  93 CALM      30.15S
RENO, NV       SUNNY     44  32  62 CALM      30.15R
SALT LAKE CITY MOSUNNY   48  37  65 CALM      30.16R
SAN DIEGO, CA  MOSUNNY   65  40  39 CALM      29.84R
SAN FRANCISCO, MOSUNNY   63  50  62 CALM      29.86R
SAN JOSE, CA   MOSUNNY   62  43  49 SE3       29.86R
SEATTLE, WA    FOG       56  55  97 NE5       30.19S VSB 1/2
TIJUANA, MEX   MOSUNNY   64  30  27 S5        29.85R

$$

STATION/POSITION TIME  TEMP    WIND        PRES    VSBY  WAVE
                       AIR SEA DIR/SP/G                  HT/PER
                 (UTC) (F)     (DEG/KT/KT) (MB)    (MI)  (FT/S)
POINT ARGUELLO B NOT AVBL
WEST SANTA BARBA 1500   61 59  250/  2/  2 1008.4
POINT CONCEPTION NOT AVBL
EAST SANTA BARBA 1500   63 62  170/  2/  2 1009.7
SANTA MONICA BAY 1500      67   20/  4/  6 1008.7



USA.gov is the U.S. government's official web portal to all federal, state and local government web resources and services.